[Date Prev][Date Next][Thread Prev][Thread Next][Date Index][Thread Index][JAMSAT Home]

[jamsat-news:1793] jas2info #314


========================   ºÇ¿·¾ðÊó   ==============================

        Last updated ¡¡02May2003 ¡¡18:30(JST)   #314

====================================================================
   
£±¡Ë¥¢¥Þ¥Á¥å¥¢ÄÌ¿®±ÒÀ±¾ðÊ󡢣ƣϥ·¥ê¡¼¥º¤Îµ°Æ»Í×ÁÇ¡¢¥Æ¥ì¥á¥È¥ê¡¢£Ñ£Ó£Ï¤Î
¡¡¡¡¡¡¾õ¶·Åù¤ò¤Þ¤È¤á¤Æ¤ß¤Þ¤·¤¿¡¥
¡¡¡¡¡¡
¡¡£Æ£Ï¡Ý£²£¹¤Î£²£°£°£³Ç¯£µ·î£²Æü¡Ê¶â¡Ë¤Î£±£·¡§£°£¸¡Ê£Ê£Ó£Ô¡Ë¤Î¥Ñ¥¹¤Ç¤Ï
£Ê£Á£Ò£Ì¤Î¥Û¡¼¥à¥Ú¡¼¥¸¤Ë¤¢¤ë¤È¤¦¤ê¥¢¥Ê¥í¥°±¿ÍѤǤ·¤¿¡£¡¡º£Æü¤Þ¤Ç¤Î´Ñ¬¤·¤¿
¥Æ¥ì¥á¥È¥ê¡¼¤ÈËÜÆü¤Î¥Æ¥ì¥á¥È¥êºÇ½ª¹Ô¤ÎʬÀÏ·ë²Ì¤òÊó¹ð¤·¤Æ¤ª¤­¤Þ¤¹¡£

AS33116C  02May2003
17:09-17:21(JST)
AOS   MEL  LOS  Elev
351   295  241  16.6
Freq. 435.802-.790Hz
(JAS-2  No.121  B 270-1040)

HI HI AE C7 88 55 00 D4 CC       6E 7B 6D 7C 4B 91 91 AF 7D B2 B1 B2 B1 AE 
HI HI AE C7 88 55 00 D4 39 06 09 50 44 2E 7E 48 91 91 B0 7A B2 B1 B2 B1 AE  
HI HI AE C7 88 55 00 D4          57 93 4B 80 60 91 91 B0 7A B2 B1 B2 B1 AE 
HI HI AE C7 88 55 00 D4 1F 05 09                91 91 B0 8F B2 B1 B2 B1 AE 
HI HI AE C7 88 55 00 D4    04 09 48 65 38 7F 60 91 91 B0    B2 B1 B2 B1 AE 
HI HI AE C7 88 55 00 D4 CD 04 09 4A 8O 5D 7E 60 93 91 B0 84 B2 B1 B2 B1 AE 
HI HI AE CZ 88 55 00 D4 C8 04 0C                90 90 B0 85 B2 B1 B2 B1 AE 
HI HI AE C7 88 55 00 D4 D0 04 09 44 76 50 7A 60 90 90 B0 90 B2 B1 B2 B1 AE 
HI HI AE C7 88 55 00 D4 DF 04 09 44 88 64 6B 5F 8F 90 B0 7F B2 B0 B2 B1 AE 
HI HI AE C7 88 55 00 D4 F0 05 09 44 71 60 8F 60 8B 90 B0 7C B2 B0 B2 B1 AE 
HI HI AE C7 88 55 00 D4 20 05 08 44 75 5B 7B 60 90 90 B0 71 B0 B0 B1 B1 AE
HI HI AE C7 88 55 00 D4 41 05 09 4D 7E 58 6C 60 90 90 AF 86 B1 B0 B1 B1 AE 

AS33114C  02May2003
13:38-13:50(JST)
AOS   MEL  LOS  Elev
 44    92  138  10.4
Freq. 435.802-.791Hz
(JAS-2  No.121 A 2780-3100END B 0-270)

HI HI AE C7 88 55 00 D4 5F 09 09                90 9B B0 73 B2 B0 B1 B1 AE 
HI HI AE C7 88 55 00 D4 6C 09 09 72 3F 36 80 5F 90 90 B0 74 B2 B0 B1 B2 AE 
HI HI AE C7 88 55 00 D4 2D 09 09 61 39 37 76 60 8F 90 B0 79 B2 B0 B1 B1 AE
HI HI AE C7 88 55 00 D4 37 09 6C 6C 33  8       8F 8F B0 7E B0 B0 B1 B1 AE 
HI HI AE C7 88 55 00 D4 89 07 09 78 6E 4A 71 5F 8F 8F B0 7F B2 B0 B1 B1 AE 
HI HI AE C7 88 55 00 D4 AE 05 09 61 65 4A 7B 5F 8F 8F B0 6D B2 B0 B1 B1 AE 
HI HI AE C7 88 55 00 D4 BB 05 09 52 6A 48 76 60 90 90 B0 AF B1 B0 B1 B1 AE 
HI HI AE C7 88 55 00 D4 6C 05 09 5C 7C 56 67 60 90 90 B0 91 B1 B0 B1 B1 AE 
HI HI AE C7 88 55 00 D4 39 05 09 58 71 64 7B 60 90 91 B0 72 B1 AF B1 B1 AE
HI HI AE C7 88 55 00 D4 05 05 09 49 6E 4D 77 60 90 91 B0 82 B1 AF B1 B1 AE 
HI HI AE C7 88 55 00 D4 FE 05 09 4E 88 69 65 60 90 91 B0 7D B1 AF B1 B1 AE 
HI HI AE C7 88 55 00 D4 E7 05 09 4D 6A 74 6F 60 91 74 B0 7D B1 AF B0 B1 AE 
HI HI AE C7 88 55 00 D4 12 05 09 4C 6B 47 6E 61 91 92 B0 7A B1 AF B0 B1 AE 
HI HI AE C7 88 55 00 D4 23 05 09 4C 8F 77 6B 60 91 92 B0 7C B1 AF B0 B1 AE 
HI HI AE C7 88 55 08 D4 55 05 09 4C 61 75 6D 61 92 92 B0 87 B1 AF B0 B0 AE 
HI HI AE C7 88 55 00 D4 67 05 09 4D 69 42 69 61 92 92 B0 7C B1 AF B0 B0 AE 
HI HI AE C7 88 55 00 D4 98 05 09 4B 8C 8B 7A 61 92 92 B0 88 B1 AF B0 B0 AE 

AS33102C  01May2003
16:18-16:34(JST)
AOS   MEL  LOS  Elev
  2   289  168  40.7
Freq. 435.803-.788Hz
(JAS-2  No.121 A 2140-2780)

HI HI AE C7 88 55 00 D4 8F 07 09 3A 53       5E 90 91 B0 85 B2 B1 B2 B2 AE 
HI HI AE 07 88 55 00 D4 4F 06 09 32 6A 3F 83 5F 90 8F B0 94 B2 B0 B2 B2 AE 
HI HI AE C7 88 55 00 D4 4F 05 09 17 6C 20 7B 5F 90 8F 9D 94 B2 B0 B2 B2 AE 
HI HI AE C7 88 55 00 D4 4F 04 08 02             90 8F 9D 81 B2 B0 B2 B2 AE 
HI HI AE 07 88 55 00 D4 4F 04 09 02 6E 31 7F 60 91 90 B1 66 B2 B0 B2 B2 AE 
HI HI AE C7 88 55 00 D4 4F 04 09 02    42 7A 60 90 91 B1 8F B2 B0 B2 B2 AE 
HI HI AE C7 88 55 00 D4 4F 04 09 02 5A       60 90 92 B0 8F B2 B0 B2 B2 AE 
HI HI AE C7 88 55 00 D4 4F 04 09 02 63 49 7E 60 90 91 B0 99 B2 B0 B2 B2 AE 
HI HI AE C7 88 55 00 D4 4F 04 09 02 56 55 5E 60 90 91 B0 8D B2 B0 B1 B2 AE 
HI HI AE C7 88 55 00 D4 4F 04 09 02 52 5F 6B 60 90 91 B0 6B B2 AE B1 B2 AE 
HI HI AE C7 88 55 00 D4 4F 04 09 02 5E 62 65 60 90 91 B0 75 B1 AF B1 B1 AE   
HI HI AE C7 88 55 00 D4 4F 04 09 02 5B 4C 6F 60 65 91 B0 7E B1 AF B1 B1 AE 
HI HI AE C7 88 55 00 D4 4F 04 09 02 46 6F 79 60 91 91 B0 83 B1 AF B1 B1 AE 
HI HI AE C7 88 55 00 D4 4F 04 09 02 56 70 7D 60 99 91 B0 7A B1 AF B1 B1 AE 
HI HI AE C7 88 55 00 D4 4F 04 09 02 55 52 48 61 6O 92 B0 6F B1 AF B1 B1 AE 
HI HI AE C7 88 55 00 D4 4F 04 09 02 48 83 82 60 91 92 B0 7D B1 AF B1 B1 AE 
HI HI AE C7 88 55 00 D4 4F 04 09 02 7C 48 7B 61 92 92 B0 6C B1 AF B1 B1 AE 
HI HI AE C7 88 55 00 D4 4F 04 09 02 48 59 67 61 92 92 B0 7E B1 AF B1 B1 AE 
HI HI AE C7 88 55 00 D4 4F 04 09 02 57 85 79 61 92 92 B0 95 B1 AF B0 B1 AE 
HI HI AE C7 88 55 00 D4 4F 04 09 02 85 41 6F 61 93 92 B0 78 B1 AF B0 B1 AF 
HI HI AE C7 88 55 00 D4 68 7A 09 02 45

AS33101C  01May2003
14:32-14:46(JST)
AOS   MEL  LOS  Elev
 26    97  168  32.3
Freq. 435.803-.789Hz
(JAS-2  No.121 A 1450-2140)

                                             5F 91 8F B0 74 B2 B0 B2 B2 AE 
HI HI AE C7 88 55 00 D4 8A 07 09 3D 5C 55 87 43 93 91 B0 81 B2 B0 B2 B2 AE 
HI HI AE C7 88 55 00 D4 32 06 09 30 99 38 85 60 91 90 B0 7B B2 B0 B2 B2 AE 
HI HI AE C7 88 55 00 D4 93 04 09 04 7B 05 89 7E 60 91 B0 74 B2 B0 B2 B2 AE 
HI HI AE C7 88 55 00 D4 93 04 09 04        C 78 60  91 0 85 B2 B0 B2 B2 AE 
HI HI AE C7 88 55 00 D4 93 04 09 04 70 30 7C 5F 60 91 B0 91 B2 B0 B2 B2 AE 
HI HI AE 07 88 55 00 D4 93 04 09 04 51 53 7C 60 90 90 B0 7B B2 B0 B2 B2 AE 
HI HI AE C7 88 55 00 D4 93 O4 09 04 66 50 7B 60 8F 90 B0 7F B2 B0 B1 B2 AE 
HI HI AE C7 88 55 00 D4 93 04 09 04 6A 54 7B 60 4E 90 B0 83 B2 AF B1 B2 AE 
HI HI AE C7 88 55 00 D4 93 04 09 04 6C 60 8F 90 9  90 B0    B2 AF B1 B2 AE 
HI HI AE C7 88 55 00 D4 93 04 09 5A 57 65 81 60 90 90 B0 86 B2 AF B1 B2 AF 
HI HI AE C7 88 55 00 D4 93 04 09 04 62 54 7C 60 8F 90 B0 A4 B1 AF B1 B2 AE 
HI HI AE C7 88 55 00 D4 93 04 09 04 4C 5D 62 60 98 61 B0 93 B1 AF B1 B2 AE 
HI HI AE C7 88 55 00 D4 93 04 09 04 5B 75 82 60 91 91 B0 79 B1 AF B1 B1 AE 
HI HI AE C7 88 55 O0 D4 93 04 09 04 AE 7A 76 60 91 91 B0 68 B1 AF B1 B1 AE 
HI HI AE C7 88 55 00 D4 93 04 09 04 42 7D 77 61 91 92 B0 87 B1 AF B1 B1 AE 
HI HI AE C7 88 55 00 D4 93 04 09 04 73 63 7B 60 91 92 B0 6  B1 AF B1 B1 AE 
HI HI AE C7 88 55 00 D4 93 04 09 04 81 55       91 92 82 6 

------------------------¡¡ £Æ£Ï-£²£¹¤Îµ°Æ»Í×ÁÇ¡¡------------------------------        
 
¡¡¡¡¢£ µ°Æ»Í×ÁÇ£±¡§¡Öjamsat¡Ýkeps¡§£±£³£°£±¡×¤è¤ê         
¡¡¡¡¡¡¡¡¡¡¡¡¡¡¡¡¡¡¡¡SB KEPS @ AMSAT  $ORB03121.N
¡¡¡¡¡¡¡¡¡¡¡¡¡¡¡¡¡¡¡¡2Line Orbital Elements 03121.AMSAT

HR AMSAT ORBITAL ELEMENTS FOR AMATEUR SATELLITES IN NASA FORMAT
FROM WA5QGD FORT WORTH,TX May 1, 2003
SEND SUBSCRIBE/UNSUBSCRIBE TO majordomo@amsat.org ONLY
BID: ORB03121.N

¡¡DECODE 2-LINE ELSETS WITH THE FOLLOWING KEY:
¡¡1 AAAAAU 00  0  0 BBBBB.BBBBBBBB  .CCCCCCCC  00000-0  00000-0 0  DDDZ
¡¡2 AAAAA EEE.EEEE FFF.FFFF GGGGGGG HHH.HHHH III.IIII JJ.JJJJJJJJKKKKKZ
¡¡KEY: A-CATALOGNUM B-EPOCHTIME C-DECAY D-ELSETNUM E-INCLINATION F-RAAN
¡¡G-ECCENTRICITY H-ARGPERIGEE I-MNANOM J-MNMOTION K-ORBITNUM Z-CHECKSUM

FO-29
1 24278U 96046B   03120.90994380  .00000001  00000-0  36364-4 0 05809
2 24278 098.5499 262.4806 0351455 031.6778 330.4991 13.52879276330951

 ¢£ µ°Æ»Í×ÁÇ£²¡§¡Öjamsat¡Ýkeps¡§£±£³£°£²¡×¤è¤ê¡¡

SB KEPS @ AMSAT  $ORB03121.O
Orbital Elements  03121.OSCAR

HR AMSAT ORBITAL ELEMENTS FOR OSCAR SATELLITES
FROM WA5QGD FORT WORTH,TX May 1, 2003
SEND SUBSCRIBE/UNSUBSCRIBE TO majordomo@amsat.org ONLY
BID: ORB03121.O
TO ALL RADIO AMATEURS BT

Satellite: FO-29
Catalog number: 24278
Epoch time:      03120.90994380
Element set:    0580
Inclination:      098.5499 deg
RA of node:       262.4806 deg
Eccentricity:    0.0351455
Arg of perigee:   031.6778 deg
Mean anomaly:     330.4991 deg
Mean motion:   13.52879276 rev/day
Decay rate:        1.0e-08 rev/day^2
Epoch rev:           33095
Checksum:              334

-------------------¡¡¡¡FO-29¡ÊJAS-2)¤Î¥Æ¥ì¥á¥È¥ê¤Ë´Ø¤¹¤ë¾ðÊó¡¡¡¡----------------------¡¡
¡¡
£²¡Ë¾åµ­£²£°£°£³Ç¯£µ·î£²Æü¡Ê¶â¡Ë¤Î¥Æ¥ì¥á¥È¥ê¤Î£±£·:£°£¸¤Î¥Ñ¥¹¤ÎºÇ½ª¹Ô¤òʬÀϤ·¤Æ
¡¡¤ª¤­¤Þ¤¹¡£

AS33116C  02May2003
17:09-17:21(JST)
AOS   MEL  LOS  Elev
351   295  241  16.6
Freq. 435.802-.790Hz
(JAS-2  No.121  B 270-1040)

HI HI AE C7 88 55 00 D4 41 05 09 4D 7E 58 6C 60 90 90 AF 86 B1 B0 B1 B1 AE 
 
¥Æ¥ì¥á¥È¥ê¡¡  Æâ¡¡ÍÆ¡¡ ¡¡     ´¹»»»»ÃÍ¡¡Ã± °Ì
£³£Ã	¼§µ¤¥»¥ó¥µ¡¼£Ú¼´=	61764.7	[nT]
£³£Ä	¼§µ¤¥»¥ó¥µ£Ø¼´	=	43137.2	[nT]
£´£Á	ÂÀÍÛÅÅÃÓȯÀ¸ÅÅή=	1058.8	[mA]
£´£Â	£Â½¼ÊüÅÅÅÅή	=	-118.4	[mA]
£´£Ã	£Âü»ÒÅÅ°µ	=	15.5	[V]
£´£Ä	£ÂÃæ´Öü»ÒÅÅ°µ	=	6.9	[V]
£µ£Á	¥Ð¥¹ÅÅ°µ	=	17.2	[V]
£µ£Â	£Ê£Ô£ÁÁ÷¿®ÅÅÎÏ	=	772.9	[mW]
£µ£Ã 	¹½Âβ¹ÅÙ£±	=	13.1	[¡î]
£µ£Ä	¹½Âβ¹ÅÙ£²	=	13.5	[¡î]
£¶£Á	¹½Âβ¹ÅÙ£³	=	13.1	[¡î]
£¶£Â	¹½Âβ¹ÅÙ£´	=	13.1	[¡î]
£¶£Ã	£Â¥»¥ë²¹ÅÙ	=	14.3	[¡î]

 ==========================¡¡FO-29¡Ê¤Õ¤¸£³¹æ¡Ë¤Î¥Æ¥ì¥á¥È¥êʬÀÏ¡¢£Ñ£Ó£Ï¾ðÊóÅù¡¡=====================
   
¡¡£³)[jamsat-bb:12920]FO-29 CW telemetry¤Ë¤ª¤¤¤ÆÏÆÅÄÈþº¬É׻᤬FO-29¡¡¤Î¥Æ¥ì¥á¥È¥ê-¤Î¾Ü¤·¤¤²òÀϤò
¡¡¡¡¤µ¤ì¤Æ¤¤¤Þ¤·¤¿¤Î¤ÇžºÜ¤µ¤»¤Æ夭¤Þ¤·¤¿¡£

¡¡2003ǯ2·î3Æü¤Ë¼õ¿®¤µ¤ì¤¿±ÒÀ± FO-29 ¤Î CW¥Æ¥ì¥á¥È¥ê
¤ò¡¢¥×¥í¥°¥é¥à¡ØFo29cwt2¡Ù¤òÍѤ¤¤Æ²òÀϤ·¤Æ¤ß¤Þ¤·¤¿¡£

http://www.asahi-net.or.jp/~ei7m-wkt/numbr364.htm
http://www.ne.jp/asahi/hamradio/je9pel/fo29cwt2.zip

-------------------------------------------
Name: JE9PEL/1 ÏÆÅÄ
Mail: ei7m-wkt@asahi-net.or.jp
URL : http://www.asahi-net.or.jp/~ei7m-wkt/
QTH : Yokohama, Japan
Date: Feb 7, 2003
-------------------------------------------
 =================================================================================================
¡¡
¡¡£´¡Ë£Ê£Á£Ò£Ì ¤Î¥Û¡¼¥à¥Ú¡¼¥¸¤Ë±¿ÍÑͽÄ꤬µ­ºÜ¤µ¤ì¤Æ¤¤¤Þ¤·¤¿¤Î¤Ç¤´¾Ò²ð¤·¤Þ¤¹¡¥
       ¡Ê http://www.jarl.or.jp/Japanese/3_Fuji/new/uy.htm ¡Ë
       
¡¡¡¡¡¡¡¡¡¡¡¡¡¡¡¡¡ö¡ö¡ö¡¡±¿ÍÑͽÄê¤Ë¤Ä¤¤¤Æ¡¡¡ö¡ö¡ö

¡¡¡¡¡¡¡¡¡¡¡¡¡¡¡¡Åöʬ¤Î´Ö ¡¡¡¡¡¡¡¡¥¢¥Ê¥í¥°·Ï±¿ÍÑ

¡¡¡¡¡ö¡¡¤Ê¤ª¡¤±¿ÍÑͽÄê¤ÏÅÔ¹ç¤Ë¤è¤ê¡¤Êѹ¹¤¹¤ë¤³¤È¤¬¤¢¤ê¤Þ¤¹¤Î¡¤¤Ç¤¢¤é¤«¤¸¤á¤´Î»¾µ´ê¤¤¤Þ¤¹¡£

¡¡¾È²ñÀè¡¡¡§¡¡lab@jarl.or.jp

¡¡ºÇ¿·¤Î¾ðÊó¤Ï¥Æ¥ì¥Û¥ó¥µ¡¼¥Ó¥¹¡Ê£°£³¡Ý£³£¹£´£²¡Ý£±£°£°£°¡Ë¤ò¤ªÊ¹¤­¤¯¤À¤µ¤¤¡£¡¡¡¡
¡¡ 
¡¡¡¡¤Õ¤¸£²¹æ¡Ê£Ê£Á£Ó¡Ý£±£â¡Ë¤Î±¿ÍÑ 

